Theta_e
317 316 316 316 316 316 315 314 314 314 313 313 312 311 310 309 306 305 303 306 303 296 305 302 301 308 309 309 309 310 309 307 307 309 307 307 307 306 307 311 315 316 317 319 321 321 321 321 321 322 321 322 322 323 322 321 321 322 323 323 324 324 323 323 323 322 321 321 321 320 318 318 317 317
317 316 316 316 316 316 315 315 313 313 314 313 312 312 312 312 310 309 306 307 308 300 297 305 302 301 307 308 308 308 309 305 306 307 306 306 307 305 305 308 311 312 314 316 318 319 320 320 320 320 320 320 320 320 321 321 321 321 322 322 322 322 321 321 321 321 320 321 321 320 319 318 317 317
317 316 316 316 316 316 316 315 314 313 313 314 314 314 314 313 313 312 311 306 311 312 311 305 306 305 305 308 309 308 307 306 306 307 306 305 303 301 303 303 307 310 313 315 315 316 317 318 319 319 319 319 319 319 319 319 320 320 320 321 320 320 320 320 319 319 318 319 319 319 319 319 318 316
318 317 316 315 316 316 316 316 316 316 315 315 315 315 314 314 314 314 312 309 309 311 310 308 307 308 308 306 306 306 307 307 302 306 306 306 300 301 303 300 302 306 309 311 311 313 314 314 315 316 317 318 318 318 319 319 320 319 319 317 317 317 317 317 317 316 316 316 317 318 318 318 318 318
318 317 316 315 316 316 315 317 317 317 317 316 316 316 316 315 315 314 312 310 309 313 310 307 308 307 308 305 305 306 304 303 301 302 304 304 304 303 303 303 299 301 304 306 308 309 310 310 311 312 313 314 315 316 317 317 318 316 315 311 311 311 311 313 312 313 314 314 315 316 316 316 316 316
318 317 316 316 315 316 316 317 316 317 317 316 315 315 315 315 314 315 313 310 310 309 312 305 305 306 305 308 300 307 304 302 298 299 300 300 300 302 301 301 301 299 301 304 306 307 307 307 306 307 307 308 309 311 313 311 310 309 307 306 307 306 308 309 310 310 311 311 312 313 314 315 315 315
316 316 315 315 315 316 315 316 316 316 315 316 315 314 314 314 314 314 314 312 309 309 310 311 307 307 304 308 308 303 304 305 303 302 299 300 301 301 299 299 300 299 301 303 304 305 305 305 305 304 304 304 304 304 305 305 305 304 305 305 305 305 306 306 306 307 308 308 309 309 309 311 311 310
315 315 315 315 315 314 314 315 315 315 314 314 314 314 314 314 313 313 313 313 311 310 308 311 311 305 307 307 302 305 304 302 299 300 301 298 299 298 297 297 297 297 299 301 302 302 303 303 303 303 303 302 302 302 302 302 302 302 302 303 303 304 304 304 305 306 306 306 307 307 307 306 306 306
314 314 314 315 315 314 314 314 314 314 313 313 313 313 314 313 313 313 312 311 311 310 309 310 310 304 305 306 302 301 302 295 293 293 296 298 298 297 297 295 296 296 297 298 299 300 301 301 302 302 302 301 301 301 301 301 300 300 301 301 300 301 302 302 303 303 304 305 305 305 304 304 303 302
313 314 314 314 315 314 314 314 314 314 313 313 312 312 312 313 312 311 311 311 311 310 310 310 310 299 301 297 298 296 301 299 297 297 296 294 294 295 295 294 295 295 296 296 296 296 298 299 300 301 300 300 300 300 300 299 299 298 299 299 299 299 299 300 301 302 302 302 302 302 301 300 300 299
314 314 314 314 315 315 315 314 314 314 313 313 312 312 312 312 311 310 310 310 310 310 309 309 310 310 302 304 304 296 296 297 299 300 297 296 295 292 294 296 294 294 294 294 294 295 295 295 295 297 298 298 298 298 298 298 297 296 297 297 298 298 299 300 300 301 301 300 300 299 299 299 298 297
314 315 315 315 315 316 316 315 315 314 313 313 312 312 312 311 310 310 310 309 309 309 308 308 308 307 307 296 294 288 290 292 295 292 295 298 297 295 293 294 297 293 291 291 292 293 293 293 293 294 295 296 297 297 296 296 295 295 296 297 298 298 299 300 299 299 299 299 298 298 298 297 296 296
314 314 315 316 316 313 305 304 306 307 307 314 312 312 311 310 310 310 310 309 309 308 308 307 307 305 301 301 300 295 294 298 302 293 293 296 298 298 296 295 293 292 290 290 290 290 291 290 290 290 290 291 293 293 293 293 293 294 295 295 296 296 297 298 298 298 298 298 298 297 297 296 295 295
314 315 315 315 303 301 299 299 300 301 302 303 311 314 312 310 310 309 308 307 307 305 305 305 305 303 302 301 299 298 297 294 295 292 291 294 295 295 294 295 293 290 291 291 290 290 290 289 289 288 288 289 289 289 290 290 290 292 293 294 294 295 296 297 297 297 296 297 297 297 296 296 295 295
313 314 315 316 307 301 297 300 298 300 300 300 300 302 304 305 311 309 307 307 307 304 304 305 303 303 303 303 301 299 299 294 296 297 295 295 294 295 295 297 291 289 291 290 290 291 289 289 288 288 287 288 287 287 287 291 292 292 293 294 294 294 295 295 295 295 295 296 296 296 296 295 295 294
313 313 314 314 314 314 311 311 307 301 298 299 299 300 300 301 302 305 309 306 303 304 303 302 303 303 303 304 298 300 295 295 292 294 294 293 294 293 293 294 297 291 291 291 290 292 287 287 288 288 287 287 287 286 289 292 292 293 293 292 292 293 293 294 294 294 294 294 294 294 294 294 294 294
314 313 312 313 314 315 301 302 311 312 308 298 297 298 298 298 300 302 302 304 309 310 307 305 304 304 304 303 301 298 295 295 295 294 293 293 293 294 294 296 295 289 289 291 289 290 287 285 286 287 286 285 286 286 291 292 291 291 291 291 291 291 292 292 292 293 293 293 293 293 293 292 292 292
313 313 312 312 311 311 309 308 309 311 311 311 306 302 302 303 301 298 299 300 299 302 310 308 305 307 305 304 302 296 297 296 296 295 294 293 293 293 294 297 298 292 288 292 290 288 286 285 286 286 284 284 285 285 290 291 291 291 291 290 291 291 291 291 291 291 291 291 291 292 292 291 291 291
310 311 312 312 312 311 310 309 306 308 309 308 308 305 303 304 305 306 305 304 305 304 306 309 309 309 306 306 303 298 299 301 299 299 297 296 296 296 293 291 286 285 288 291 291 292 287 285 285 286 284 283 283 284 290 290 290 290 290 290 290 291 291 291 291 291 291 290 290 290 290 290 290 289
310 311 311 310 310 310 310 303 300 302 308 310 305 302 303 303 303 304 302 302 303 306 309 309 309 308 306 302 302 299 300 300 299 296 295 294 292 293 292 293 289 289 287 289 291 290 285 284 286 285 282 283 283 284 285 289 289 290 290 290 290 290 290 290 290 290 290 290 290 289 289 289 289 288
309 309 310 310 311 311 310 303 302 301 298 304 301 300 299 301 302 303 303 300 299 299 300 301 302 302 302 301 300 300 299 297 297 296 295 295 292 292 292 292 289 289 286 286 289 290 287 283 285 281 281 281 281 282 283 285 288 289 289 290 290 290 290 290 289 289 289 289 289 289 288 287 286 285
307 306 296 296 307 307 307 301 299 299 298 301 300 298 298 295 296 299 299 300 300 297 297 296 297 297 298 298 298 298 298 298 296 296 296 294 292 293 294 295 292 288 286 287 287 288 288 283 284 280 279 279 279 281 282 283 286 289 289 290 289 289 289 289 288 288 288 288 287 287 287 286 283 279
303 304 298 294 296 301 303 302 302 301 299 302 301 300 299 298 299 301 299 299 297 295 293 294 293 293 292 294 295 294 295 296 294 297 298 293 294 294 293 293 290 288 288 287 287 289 286 281 283 281 278 277 279 278 280 282 282 281 281 284 284 287 287 287 287 286 286 286 286 285 285 284 282 276
298 298 297 295 297 297 297 297 298 298 297 299 300 299 299 298 299 300 296 295 297 297 296 297 295 295 294 293 292 292 292 293 293 295 296 295 295 295 295 293 293 294 292 285 288 290 287 285 283 283 283 280 278 277 278 279 279 278 278 279 279 283 284 285 284 285 284 284 284 284 284 284 281 275
296 296 297 298 294 296 296 296 296 296 297 296 297 298 298 299 298 296 296 294 292 295 294 293 293 293 292 292 293 292 292 292 293 293 293 295 295 296 295 294 293 293 290 285 289 290 287 285 285 282 281 279 278 274 277 277 276 276 277 278 277 277 277 278 279 279 283 283 283 283 283 283 283 279
294 295 296 294 293 294 295 295 296 297 296 296 294 295 297 297 297 296 294 294 293 294 295 295 294 294 293 293 292 292 291 291 291 291 292 292 293 295 297 296 295 293 293 286 290 289 287 283 286 281 281 278 277 276 275 276 275 274 274 276 276 276 276 275 275 274 274 274 276 279 280 282 282 282
293 293 292 292 291 292 293 294 295 296 297 295 296 297 296 295 295 294 296 294 294 294 294 293 293 293 292 292 292 292 291 290 290 290 291 291 291 291 291 286 286 289 287 286 288 288 289 287 286 284 282 281 278 276 275 274 274 275 274 274 274 275 275 275 274 273 273 273 273 279 279 280 280 281
291 292 291 290 291 291 291 292 293 294 294 294 295 295 295 294 292 294 294 293 293 292 292 292 292 292 291 291 292 290 289 290 289 289 290 290 289 289 286 283 282 283 284 286 286 287 288 286 284 286 285 282 279 276 274 276 274 274 273 274 273 273 274 274 273 273 273 272 271 270 270 271 272 272
290 290 290 290 290 290 291 291 292 291 291 292 292 292 292 290 293 293 293 293 291 291 291 291 291 291 291 291 291 290 289 288 288 287 284 282 281 281 281 280 279 280 282 285 285 286 287 286 284 284 284 283 281 280 278 275 274 273 274 272 271 273 273 274 273 273 273 272 272 271 271 271 271 272
288 289 289 289 289 288 288 288 289 289 289 289 289 289 289 291 292 293 293 292 291 291 291 291 291 291 290 289 289 288 288 288 287 287 285 282 280 280 281 281 279 278 278 278 283 285 285 285 284 283 282 282 282 280 279 275 274 274 274 273 273 273 273 273 273 274 273 272 271 271 271 271 272 271
287 287 287 288 288 288 288 287 287 288 288 288 289 289 289 290 291 291 291 292 292 291 291 291 291 291 290 289 288 288 287 287 287 286 285 284 283 281 282 283 280 276 277 277 277 279 281 282 282 283 281 280 280 280 279 278 275 273 274 274 273 270 272 273 273 273 273 272 271 271 270 269 270 272
287 287 287 287 287 287 287 287 288 288 288 288 288 289 290 290 290 289 289 289 290 291 291 291 290 289 288 287 287 287 287 287 286 285 284 284 282 281 282 281 280 277 275 276 276 277 278 280 280 281 282 280 279 277 277 277 275 274 273 274 274 273 273 272 273 273 273 272 270 270 270 271 270 270
287 286 286 286 286 286 286 287 287 287 288 288 288 288 288 289 290 290 290 290 290 290 290 289 289 289 288 288 287 286 286 286 285 283 284 284 283 281 282 282 282 276 276 275 275 275 276 275 276 277 277 278 278 277 276 274 275 275 274 273 273 272 272 273 273 272 271 271 270 269 269 270 269 271
286 286 286 286 286 286 286 286 286 287 287 287 287 288 287 288 289 289 289 290 290 290 290 290 290 289 288 287 286 285 285 285 284 283 283 283 283 280 280 281 282 279 278 277 274 274 274 274 274 275 275 275 276 276 277 276 274 274 274 274 273 272 273 273 273 272 271 271 270 268 268 268 269 268
286 286 286 286 286 286 286 286 287 287 287 287 287 287 288 288 288 288 288 289 289 289 289 289 289 289 289 288 287 285 285 284 283 281 282 282 281 281 281 280 281 278 277 276 274 274 273 273 274 274 273 274 274 275 277 276 274 273 273 273 273 273 272 273 273 272 271 271 271 269 268 268 268 269
286 286 286 286 286 286 286 286 287 287 287 287 287 287 287 288 288 287 288 288 288 288 288 288 288 288 288 288 287 285 285 284 282 281 280 281 280 280 281 281 281 279 277 276 274 273 274 274 275 274 273 273 272 272 272 278 277 274 272 272 273 272 273 272 273 272 271 270 270 269 267 267 267 268
286 286 286 286 286 286 286 287 287 287 287 287 287 287 287 287 288 288 288 288 288 288 288 288 288 288 288 287 287 285 284 283 282 281 280 280 280 280 279 279 279 278 276 276 275 273 274 274 276 275 274 273 272 272 273 273 275 277 274 273 272 272 272 272 271 270 271 270 269 269 268 268 267 268
286 286 286 286 286 287 287 287 287 287 287 287 287 287 287 288 288 288 288 288 288 288 288 288 288 288 288 287 286 285 284 284 283 281 280 280 279 279 279 279 279 277 276 275 273 273 274 274 275 275 275 274 273 273 271 271 270 273 277 275 272 272 272 271 270 269 269 270 269 269 269 267 268 268
286 286 286 286 286 286 286 286 287 287 287 287 287 287 287 288 288 288 288 288 288 288 288 288 288 288 287 287 286 285 284 283 281 281 280 279 279 279 279 279 278 277 275 273 273 273 273 273 274 275 276 275 275 275 275 270 269 272 276 277 274 272 271 271 270 270 269 267 267 267 267 269 270 272
285 286 286 286 286 286 286 286 287 287 287 287 287 288 288 287 288 288 288 287 287 287 287 287 287 287 287 287 286 286 285 283 282 281 280 280 279 279 279 279 278 276 274 273 271 271 272 273 274 275 276 275 272 273 274 272 271 273 274 276 277 274 272 271 270 269 267 268 267 266 266 266 264 265
284 285 285 286 286 286 286 286 287 287 287 287 287 287 288 288 288 288 288 288 287 287 287 287 287 287 287 287 286 285 284 283 282 282 281 280 279 279 279 278 277 276 273 272 271 271 272 273 275 276 273 272 274 274 272 270 268 269 270 273 276 276 275 274 271 270 268 267 267 266 265 264 263 262
285 285 285 285 285 286 286 286 287 287 287 287 287 287 288 288 288 287 288 287 287 287 287 287 287 287 287 287 286 285 284 283 282 282 281 280 279 278 278 278 276 275 273 272 272 272 274 275 275 274 273 273 273 272 271 271 268 268 269 268 270 276 276 275 274 273 270 267 266 263 261 261 262 260
285 285 285 285 285 286 286 286 286 287 287 287 287 287 287 287 288 287 287 287 287 287 287 287 287 287 287 287 286 285 284 284 283 282 281 280 279 278 277 277 277 276 275 274 274 273 274 274 274 273 273 272 272 273 271 270 269 268 267 268 267 267 270 274 275 274 273 273 272 269 267 263 261 259
284 285 285 285 285 285 285 285 286 286 286 287 287 287 287 287 287 287 287 287 287 287 287 287 287 287 287 286 286 285 284 284 283 282 281 279 279 279 278 277 277 276 275 274 273 272 273 273 273 273 271 271 272 271 270 269 268 268 268 267 265 267 266 265 267 270 272 273 273 274 273 272 271 272
284 284 285 285 285 285 285 285 285 285 286 286 287 287 287 287 287 287 287 287 287 287 287 287 287 287 287 286 285 283 283 283 282 282 281 279 279 278 278 277 276 275 274 273 272 271 272 272 272 272 272 271 271 271 270 269 268 267 266 266 265 265 264 264 265 265 264 264 268 271 273 273 274 273
Wind_Speed
12 12 14 13 12 11 9 9 10 10 9 9 9 9 11 10 10 10 8 12 7 3 7 4 4 8 8 7 6 7 7 10 11 8 8 8 8 11 14 13 14 16 15 15 17 18 18 18 20 21 23 20 19 17 16 16 18 21 19 17 19 21 21 15 13 13 12 13 14 16 16 15 16 15
11 12 12 12 13 11 9 11 9 10 11 10 10 10 10 9 12 11 11 13 7 4 3 6 4 3 7 7 6 6 7 11 12 7 7 8 9 13 14 14 15 15 15 15 15 16 16 17 17 18 18 21 21 23 20 20 18 19 20 22 23 21 20 18 16 15 14 13 13 15 15 17 17 17
10 12 14 13 13 11 11 10 9 9 10 11 10 10 9 11 12 12 10 11 11 4 9 5 6 6 6 6 6 6 6 8 9 7 7 8 11 13 10 13 14 13 12 13 12 12 15 15 16 16 18 19 21 22 21 22 24 23 24 24 22 20 19 18 16 12 10 10 12 17 18 17 17 16
11 12 14 14 13 11 9 10 10 10 10 10 10 11 10 11 11 11 11 13 17 7 5 5 6 8 7 6 6 7 6 7 9 7 8 9 11 8 7 12 14 13 12 11 11 10 12 13 15 16 17 18 20 21 21 22 22 21 19 19 17 15 15 14 11 10 8 9 11 13 14 15 17 18
12 13 14 14 13 10 11 11 10 10 11 10 10 10 10 11 10 11 11 13 14 12 5 4 5 5 6 6 6 7 7 6 5 6 6 6 7 7 8 8 11 12 12 11 10 9 12 12 12 13 15 17 20 20 21 21 20 17 14 6 6 5 3 5 5 7 8 9 10 10 12 14 15 15
11 12 13 14 13 11 12 12 12 11 10 10 10 10 11 11 10 10 10 11 11 14 10 5 2 4 5 8 3 8 7 6 4 5 5 5 5 7 7 6 6 11 11 10 11 11 11 10 10 10 9 11 13 16 18 16 13 8 3 4 4 3 5 6 6 6 4 4 4 8 13 14 15 16
12 12 13 15 13 9 11 13 13 10 10 10 11 12 10 11 11 10 11 10 12 13 15 9 6 7 4 9 8 5 6 7 7 7 6 7 6 5 5 6 5 7 10 9 10 10 11 11 11 10 10 8 9 11 11 11 9 7 7 9 8 7 8 7 7 8 7 7 7 4 4 5 6 6
12 13 13 15 13 11 12 12 11 10 9 10 11 11 11 11 12 11 10 12 12 10 12 13 10 5 7 8 5 6 6 6 5 7 6 4 5 4 4 5 5 4 8 10 12 11 11 11 10 10 9 8 8 9 9 9 8 7 7 8 8 9 9 8 8 9 8 9 10 8 6 6 6 6
13 14 15 15 12 11 12 11 11 10 11 10 10 11 11 11 10 9 10 11 10 11 12 12 9 5 7 6 6 5 6 4 4 3 6 6 6 5 4 3 3 4 7 9 10 11 11 10 11 10 10 9 9 9 9 9 8 8 8 8 7 7 7 7 8 9 8 8 7 7 8 7 7 6
13 13 14 13 12 12 13 12 11 10 12 11 11 12 11 11 9 10 10 10 11 12 12 11 12 6 7 5 5 5 7 6 6 6 6 3 3 5 5 6 5 4 4 5 6 8 9 11 12 11 9 9 9 10 10 10 9 8 8 8 8 8 9 9 9 8 8 8 7 7 7 7 7 6
11 12 12 12 12 13 13 13 12 12 11 11 13 12 12 11 9 10 11 11 12 12 12 12 12 12 7 8 8 4 6 6 7 8 6 7 4 3 6 8 5 4 5 5 7 7 7 7 6 6 7 10 10 10 11 9 9 8 8 9 10 11 11 10 9 9 8 8 7 6 6 6 7 6
11 12 12 13 13 13 13 12 12 12 12 10 11 11 10 10 11 11 11 11 11 12 12 12 12 10 9 5 4 2 3 4 6 4 4 9 6 7 7 10 9 5 5 6 6 6 6 6 7 8 9 10 11 10 8 8 7 8 7 8 9 8 8 8 8 8 8 7 7 8 8 8 7 8
11 11 12 12 13 14 16 17 16 15 14 11 11 11 10 11 11 12 11 11 11 11 11 12 10 10 8 9 8 7 7 12 12 4 7 8 7 6 6 8 7 6 6 6 5 6 6 6 6 6 6 6 8 8 8 6 8 8 9 9 9 8 8 10 9 8 8 8 8 10 10 10 10 9
11 12 12 13 18 18 17 17 17 18 18 19 17 13 10 11 11 12 12 11 11 10 11 12 11 11 11 10 10 9 9 5 3 4 4 7 7 4 6 7 6 6 6 6 8 8 5 7 6 5 7 6 6 5 5 5 6 7 11 11 11 11 10 11 10 10 10 10 11 11 11 11 11 11
12 11 12 12 14 14 14 14 18 19 20 21 21 21 19 16 14 12 13 13 11 10 12 12 10 12 13 13 8 8 7 5 8 8 7 8 5 8 8 11 2 5 9 7 6 7 6 7 8 7 7 6 5 4 5 7 9 10 11 10 10 10 10 11 11 10 10 11 13 14 14 13 12 11
11 12 12 12 11 11 12 12 13 16 20 21 21 21 21 20 20 20 16 13 11 12 11 11 12 11 13 12 6 9 5 6 4 7 7 8 9 8 10 7 8 3 10 7 6 8 4 6 6 6 6 5 5 5 7 12 12 11 10 10 10 9 9 9 9 8 8 8 7 7 9 11 11 11
11 10 11 12 11 11 15 13 13 13 14 18 22 21 21 23 23 22 23 21 17 13 15 16 15 14 12 11 11 7 7 6 10 8 8 8 7 8 10 11 7 3 8 6 5 6 4 7 7 7 4 5 4 5 9 13 12 11 11 10 10 10 10 10 10 10 10 9 9 8 8 7 7 8
10 11 12 11 11 9 8 9 11 12 12 11 11 12 13 13 16 19 22 22 24 20 17 16 16 15 11 14 10 8 10 10 11 9 10 8 9 10 13 11 11 3 9 10 6 5 3 5 6 8 5 5 5 5 8 13 12 11 11 11 11 11 12 12 12 11 11 10 10 9 9 8 8 7
8 9 10 10 10 9 9 10 12 11 10 8 8 8 10 13 13 14 15 14 14 15 15 15 14 13 11 13 9 9 11 15 13 13 13 14 14 11 4 3 2 2 6 5 5 8 3 5 5 7 5 5 5 5 9 14 12 12 12 12 12 13 13 13 12 12 12 11 10 10 8 8 7 7
8 8 8 8 8 8 8 10 15 15 11 13 15 14 14 12 12 14 15 18 20 19 17 16 17 14 12 13 11 11 12 11 9 7 3 1 3 3 5 10 3 6 5 7 8 4 3 5 8 4 3 4 5 4 4 10 13 13 13 13 13 13 13 13 12 12 12 11 11 10 8 6 5 4
10 10 10 10 11 12 13 13 14 15 14 12 12 11 12 12 12 13 11 16 22 23 22 22 19 17 15 13 14 15 17 12 9 6 7 10 6 6 9 8 5 7 5 7 9 5 4 5 6 4 2 4 4 4 4 3 9 13 12 13 13 12 12 12 12 12 11 11 10 9 9 8 8 8
8 9 12 10 9 9 8 6 9 10 11 10 10 9 11 11 12 13 7 8 13 15 17 17 16 15 14 13 12 13 15 17 13 11 14 8 8 10 10 10 7 4 6 8 8 5 5 6 5 4 2 2 1 3 3 4 5 10 10 12 11 11 11 11 12 11 11 11 10 9 9 10 8 5
9 9 9 13 12 12 13 16 16 15 11 11 10 11 12 16 16 16 7 12 9 7 7 8 8 8 10 8 8 10 16 17 15 14 13 8 11 11 9 8 3 4 8 6 10 9 3 8 5 7 4 3 2 3 3 5 5 4 5 5 6 9 10 10 10 10 10 10 9 9 9 10 8 5
8 7 6 8 12 14 14 13 12 11 12 11 9 9 12 13 18 5 4 9 9 11 12 12 10 12 9 10 9 7 7 10 11 12 11 9 10 10 10 8 10 12 6 7 15 10 3 7 7 7 6 5 5 4 4 4 4 4 5 5 4 7 8 9 8 10 9 9 9 8 8 9 8 5
8 8 7 7 7 10 11 12 12 13 14 13 10 10 12 13 9 5 7 8 13 11 11 10 8 7 5 6 6 6 7 8 8 9 9 9 10 11 10 8 10 13 5 8 18 10 7 9 9 8 5 1 2 5 4 5 2 4 5 6 6 3 4 3 3 3 6 9 10 9 7 7 8 6
8 7 7 6 6 10 12 13 14 15 15 16 11 12 14 16 15 11 7 6 5 7 7 7 8 8 8 8 8 8 8 8 7 8 8 8 9 10 11 12 12 11 9 9 22 12 8 6 10 10 7 5 2 5 6 5 4 3 3 4 5 5 5 5 4 3 3 3 4 5 5 6 8 9
8 6 6 6 9 11 12 13 14 15 17 16 14 17 16 17 17 14 9 6 7 7 7 7 9 7 7 8 8 8 9 8 9 9 9 10 9 9 7 3 3 6 2 10 15 11 10 6 9 14 11 9 7 5 3 7 6 6 4 5 5 5 5 6 5 4 3 4 4 7 5 5 7 8
7 7 7 6 8 10 11 11 12 13 14 12 15 15 15 15 14 10 8 7 8 7 8 9 9 9 6 7 7 7 7 7 9 9 9 9 9 8 5 3 2 2 5 8 12 11 10 8 8 9 10 12 11 12 9 4 3 9 10 5 5 5 5 6 5 4 3 4 4 4 4 3 0 1
8 9 13 13 13 14 15 16 15 12 12 14 14 15 15 14 8 7 7 7 6 8 9 9 9 8 7 8 8 5 7 5 4 3 2 2 3 3 3 3 3 2 0 4 8 10 9 9 9 9 7 7 9 8 8 8 10 10 10 10 6 6 6 6 6 6 5 4 5 4 4 4 4 3
13 13 14 15 15 13 11 9 8 7 8 11 14 15 13 8 8 7 8 8 8 9 8 8 9 7 4 5 5 6 6 7 8 7 7 6 5 6 6 4 1 3 3 3 3 6 7 7 7 9 9 8 9 8 8 8 6 7 9 9 4 5 4 6 6 6 6 5 6 4 3 4 4 4
8 9 9 8 10 10 13 13 12 11 11 10 9 7 6 6 7 7 7 8 8 9 8 8 6 5 5 3 4 6 7 8 7 8 8 8 8 7 6 7 6 3 1 3 2 2 4 6 6 9 10 8 5 7 7 6 7 7 8 7 9 9 8 7 6 6 6 5 5 4 3 4 3 3
5 6 7 8 6 6 6 7 5 6 6 7 7 7 6 7 6 8 9 9 8 7 6 6 4 3 3 4 6 6 7 7 6 7 8 9 8 7 7 6 7 5 4 2 0 1 1 2 4 6 7 8 10 5 5 5 7 8 8 8 7 2 7 9 7 5 6 6 6 5 4 5 4 3
5 4 5 5 5 5 6 6 6 6 6 7 7 8 7 6 6 6 7 9 9 7 6 7 5 6 4 6 6 7 7 7 6 6 8 7 7 7 8 11 9 8 10 9 7 4 4 4 4 4 3 2 2 9 9 6 5 7 10 9 8 4 5 6 7 8 8 6 6 4 4 4 4 4
6 6 6 6 6 6 6 7 7 7 6 7 7 6 7 7 7 7 7 8 7 6 8 7 7 8 6 7 7 7 8 6 6 8 9 9 8 9 10 10 10 9 9 10 10 6 4 5 8 6 6 6 5 2 3 7 7 8 7 8 8 7 5 6 6 8 8 7 7 5 4 4 4 4
4 6 7 7 6 6 6 7 7 6 6 7 7 7 6 6 7 8 8 7 6 7 7 8 8 8 8 8 7 8 8 8 7 7 7 6 7 9 10 10 9 8 9 8 8 6 7 10 9 7 5 4 3 1 3 2 7 7 6 6 7 7 7 7 7 7 7 5 5 6 3 2 4 3
6 4 6 7 7 6 7 7 6 6 7 7 7 7 7 7 6 7 8 7 7 7 7 8 7 7 7 7 7 8 8 8 8 9 9 9 9 9 9 10 8 7 7 8 8 7 9 10 10 11 9 6 7 5 5 5 7 8 11 8 6 7 6 7 6 6 7 6 4 4 5 5 5 3
6 5 6 7 7 6 8 7 7 7 6 7 7 6 7 8 7 6 7 7 8 8 8 8 8 7 7 7 7 7 7 8 8 8 9 10 10 10 10 10 8 7 8 8 7 6 8 9 9 9 9 8 8 12 7 3 6 8 8 9 7 7 8 7 7 7 6 6 5 5 5 4 4 3
6 6 6 7 7 7 7 7 7 7 7 7 7 7 7 8 7 7 6 7 8 7 8 8 8 8 7 7 7 7 7 7 7 8 8 8 8 9 9 9 9 9 9 8 8 9 9 9 10 10 11 13 11 9 8 4 3 7 11 7 8 7 7 7 8 8 6 5 6 4 3 4 4 3
6 7 7 7 7 6 7 7 6 7 7 7 7 7 7 7 7 7 7 8 7 8 8 8 8 8 8 7 7 7 7 7 8 8 8 8 8 9 9 8 7 5 5 6 6 7 7 8 9 9 10 12 13 10 6 9 7 4 8 13 7 8 7 9 8 6 6 6 4 1 1 0 0 2
7 6 7 7 8 7 7 7 7 7 8 8 8 7 7 8 7 7 7 7 7 8 8 8 9 8 8 7 7 7 7 9 9 9 9 10 10 10 9 8 7 7 7 7 9 8 9 9 10 10 7 2 5 6 7 6 5 3 5 9 12 9 7 7 7 6 5 4 4 4 4 1 1 1
7 8 8 7 8 8 8 8 7 8 8 8 8 8 8 8 8 8 8 8 7 8 8 8 8 9 8 7 7 8 8 8 8 8 9 9 10 10 10 8 7 7 9 9 10 9 12 9 5 8 9 7 7 8 7 5 5 6 6 5 10 11 10 9 7 7 5 5 6 5 5 4 3 1
7 9 8 7 8 9 8 9 8 8 9 8 8 8 8 8 9 11 10 10 10 10 9 9 9 8 8 8 7 8 9 9 9 9 9 9 9 9 11 10 10 9 10 12 13 12 6 7 9 8 7 7 7 7 7 7 7 6 5 4 2 9 13 11 10 9 8 8 7 4 3 1 3 1
8 9 10 9 8 9 8 9 9 8 9 8 9 9 9 9 8 9 9 9 9 9 9 9 9 8 8 8 7 8 9 9 10 9 9 10 10 10 10 11 11 11 11 8 6 8 9 9 8 8 7 7 6 5 6 6 7 8 7 6 4 3 2 7 10 11 11 12 10 5 5 5 5 2
8 9 9 9 9 9 9 9 9 9 9 9 9 9 9 9 10 10 9 9 9 10 10 9 9 9 9 9 8 8 9 10 9 9 10 10 9 9 9 9 8 8 8 9 9 10 10 10 10 10 10 9 7 6 7 8 7 7 8 6 4 6 5 4 4 2 1 3 8 10 10 9 6 4
8 9 10 9 9 9 9 9 9 9 9 9 9 9 10 10 11 10 10 10 10 10 10 10 10 10 9 9 9 10 10 9 9 8 8 8 8 8 7 7 7 8 8 9 11 10 10 10 9 8 8 7 6 6 6 7 8 8 7 7 7 5 5 4 4 3 1 3 4 5 7 9 11 12
Wind_Direction
224 228 224 226 234 230 218 216 215 215 212 215 211 201 212 215 234 265 271 272 266 285 197 211 266 220 223 225 220 217 216 222 219 216 212 218 224 226 223 222 226 231 234 237 239 241 243 246 249 251 252 254 257 254 250 252 255 257 259 261 260 260 261 259 253 245 233 233 215 212 212 212 214 220
222 227 228 226 234 230 217 219 210 209 211 211 211 211 216 206 223 233 249 267 254 264 252 214 243 237 228 223 231 211 222 225 217 220 214 216 224 227 220 222 226 229 233 236 241 244 247 248 248 249 251 251 253 254 255 254 258 259 259 260 260 260 259 257 253 249 245 240 225 221 223 224 218 216
220 225 229 227 233 228 222 222 210 208 209 213 210 216 209 217 221 231 238 259 263 194 249 223 229 231 231 222 226 225 229 230 213 216 216 221 227 225 224 223 226 226 228 232 236 243 247 249 249 250 251 249 249 250 251 253 256 259 260 262 264 265 264 262 259 256 248 237 234 240 242 239 223 222
221 224 229 228 229 226 221 224 219 212 210 209 209 211 212 216 219 223 231 240 260 237 204 220 221 218 237 226 220 236 239 234 210 212 214 220 221 218 225 223 222 223 226 232 235 240 245 247 249 251 252 253 253 253 253 254 256 260 261 262 265 268 265 257 251 252 244 238 237 238 241 244 239 231
224 225 230 233 230 219 219 224 223 219 212 206 212 210 211 216 212 212 225 239 254 265 203 214 227 222 219 256 205 227 231 238 232 222 223 213 208 211 214 215 217 219 223 227 230 234 240 244 247 252 256 258 257 256 256 258 259 258 262 271 273 273 271 250 236 230 237 243 243 243 246 244 240 235
223 224 230 236 233 217 222 226 224 218 214 208 209 213 211 216 214 205 219 233 245 260 266 233 274 255 183 237 199 207 217 235 222 230 233 222 212 213 214 212 218 215 216 220 230 236 244 252 255 258 263 267 268 266 260 267 280 290 290 267 236 241 244 225 232 233 228 250 268 257 246 239 235 233
222 224 228 234 232 218 222 225 227 217 215 210 211 215 213 218 218 214 214 229 241 247 259 257 239 227 217 215 232 219 218 218 200 216 227 219 219 222 205 215 224 217 215 214 219 225 232 240 245 249 252 253 259 263 268 275 286 289 282 271 258 240 223 226 238 236 235 229 227 199 202 216 201 153
221 223 227 232 228 219 221 225 226 220 216 212 216 219 218 219 221 219 219 222 235 241 253 256 241 220 219 238 247 231 216 218 219 215 231 227 231 219 216 220 225 216 217 223 226 228 231 234 235 235 235 240 247 251 254 256 256 253 249 250 248 244 235 227 224 224 224 220 218 194 192 176 162 155
221 222 225 231 226 218 222 223 223 218 218 217 218 220 221 221 220 220 217 224 226 235 240 253 254 215 220 229 221 203 206 244 242 240 221 217 221 218 225 227 233 234 225 229 230 231 233 232 233 230 230 235 240 242 243 244 242 238 238 238 241 249 247 235 225 222 216 203 189 184 176 168 163 167
222 223 226 229 226 222 222 224 223 221 222 218 221 223 224 221 217 218 221 222 225 233 244 245 259 232 225 242 236 204 200 205 231 246 246 251 221 198 233 237 229 213 209 216 231 235 233 228 227 228 227 233 239 240 242 240 237 235 230 231 238 238 239 238 235 222 199 183 177 175 180 167 155 155
225 225 228 229 226 226 223 223 222 222 224 220 225 224 225 221 216 219 224 224 229 232 238 241 240 247 226 214 239 227 200 216 211 215 223 245 222 200 213 243 225 208 221 232 227 230 228 223 222 224 231 236 236 236 235 233 231 230 229 232 237 237 233 232 224 207 191 183 184 185 175 167 161 163
228 227 227 228 228 226 224 222 222 219 224 219 229 225 223 219 218 222 223 226 227 230 232 235 239 234 239 235 231 65 148 234 261 215 194 228 228 226 221 226 224 200 195 226 230 229 228 229 227 227 230 228 226 225 225 221 217 217 219 225 230 227 225 212 201 194 190 188 191 188 176 173 185 192
229 230 229 230 231 227 225 219 218 218 215 218 228 226 217 219 219 223 223 224 224 229 231 238 235 239 233 236 225 210 204 217 227 172 189 229 238 236 230 243 223 198 185 221 227 231 205 212 215 206 215 220 216 223 213 212 218 215 217 222 226 224 217 215 200 195 195 194 193 192 189 194 197 201
230 231 231 232 230 228 222 221 222 222 220 219 221 223 212 216 217 221 223 223 224 227 230 235 233 236 238 229 219 214 217 196 175 167 185 225 236 231 249 275 228 182 185 197 228 232 197 199 217 203 219 215 201 206 196 194 191 210 220 222 221 218 213 210 206 201 200 201 200 200 202 203 203 203
231 232 232 235 230 227 226 224 223 223 224 225 226 226 220 211 210 219 223 225 221 225 231 234 229 232 238 233 214 220 214 184 199 204 196 215 211 216 227 245 278 197 172 198 228 243 190 182 206 212 217 203 195 183 191 181 187 198 202 200 197 197 203 206 206 203 201 205 207 208 210 215 213 209
233 234 233 233 231 225 219 220 224 229 231 230 229 228 227 226 220 215 214 219 223 224 233 234 228 226 233 238 203 229 196 209 193 215 203 201 204 214 225 235 239 194 176 184 207 241 158 183 207 215 215 201 191 186 178 183 182 182 181 185 185 187 188 187 184 180 180 185 188 195 209 216 218 216
234 234 235 238 232 230 218 217 225 228 231 231 232 230 229 228 225 224 226 224 222 217 225 230 231 221 233 238 232 205 181 166 203 201 210 207 207 216 227 234 239 215 186 181 211 237 195 172 196 218 205 189 181 184 186 182 182 181 185 187 187 188 188 188 190 190 190 191 191 194 196 199 205 211
232 230 233 238 239 233 222 217 222 230 234 233 226 229 233 237 239 239 237 233 231 227 227 229 232 228 210 230 222 188 167 171 204 197 218 204 215 218 226 226 228 181 159 186 175 238 182 178 185 215 198 175 176 183 183 181 180 180 183 184 183 185 183 184 186 185 185 184 185 188 191 194 195 186
230 237 239 241 243 235 223 216 213 223 228 235 242 231 227 229 232 229 230 231 237 239 242 244 243 239 221 229 210 179 184 191 198 194 200 197 208 218 237 309 22 119 202 188 151 239 149 178 182 214 180 171 178 179 184 182 178 180 182 183 186 185 183 182 179 176 173 170 169 173 174 178 189 195
236 236 238 241 244 238 237 223 213 217 226 239 237 234 234 231 231 232 226 224 227 228 229 229 232 231 215 211 207 194 192 200 201 202 208 140 170 166 201 235 169 216 194 206 190 221 190 185 190 178 139 152 171 184 187 181 179 182 183 185 186 186 182 179 174 170 169 168 167 168 164 130 103 88
260 258 254 252 253 254 255 252 239 233 226 240 239 238 242 242 239 238 223 227 234 235 238 241 244 247 245 227 214 200 194 197 187 177 195 218 169 181 225 235 190 226 163 216 210 188 212 173 176 143 149 165 164 173 181 190 186 181 184 183 182 180 177 173 168 165 162 158 155 153 134 124 112 92
259 253 251 246 249 251 249 231 230 228 217 235 234 235 246 252 250 253 234 239 242 238 242 246 249 248 239 227 223 217 207 200 178 181 216 197 161 210 217 236 214 201 190 212 181 171 213 140 159 115 73 40 319 188 195 191 185 179 176 174 174 172 167 166 162 148 145 143 144 142 139 125 107 86
258 261 258 256 254 258 264 265 261 247 224 241 238 235 238 243 244 244 212 233 237 237 237 239 226 243 236 234 226 220 210 201 194 201 210 162 182 206 216 221 176 224 236 187 167 194 181 143 180 144 125 210 233 177 206 192 174 152 143 146 157 163 163 164 155 149 146 143 145 144 143 131 117 99
269 266 268 259 257 256 256 252 251 250 233 231 235 229 240 248 253 253 214 232 223 235 227 232 220 227 214 210 209 213 216 215 205 208 204 190 189 204 218 212 206 228 222 164 172 190 159 168 176 191 184 148 206 185 187 206 176 167 134 131 133 151 149 147 146 147 145 141 145 149 159 147 123 117
269 270 265 267 265 266 265 261 255 249 246 241 240 238 241 243 264 267 231 232 213 225 227 229 230 231 217 220 217 215 212 212 212 217 215 208 200 203 217 220 216 237 207 179 181 183 181 177 186 179 224 92 122 128 182 173 175 168 171 152 145 119 103 93 96 106 135 138 140 145 154 185 167 146
267 267 272 272 262 257 255 253 249 246 246 246 245 246 248 258 260 259 248 242 230 234 238 232 227 222 213 216 214 213 211 206 202 205 210 216 214 211 210 208 214 227 214 181 184 189 153 186 180 175 190 158 157 139 135 193 194 184 158 158 154 158 145 142 129 137 111 73 90 125 156 182 201 200
276 281 279 275 269 262 258 254 252 252 251 251 249 250 247 248 252 253 251 245 236 233 235 234 239 231 219 219 220 209 209 202 198 201 201 210 214 224 231 199 184 217 168 165 192 192 182 184 175 182 183 189 155 157 159 161 197 165 180 178 169 160 157 150 157 155 150 131 135 136 135 170 198 203
273 278 275 279 281 277 281 282 278 270 262 258 256 254 253 252 252 248 252 243 237 235 232 231 235 233 219 221 224 213 201 198 197 202 201 204 208 211 195 136 107 131 159 172 184 196 190 174 181 199 183 175 174 177 193 195 109 175 178 167 166 169 167 157 154 153 154 143 115 101 115 103 355 45
266 270 278 281 278 277 278 281 284 282 274 268 266 263 258 253 245 246 243 244 230 234 235 234 237 235 223 217 221 202 194 191 176 162 91 76 89 97 102 77 62 35 280 189 187 193 192 183 182 184 184 193 187 199 173 177 168 181 173 156 183 190 174 168 159 164 159 156 151 150 161 160 166 175
277 276 276 277 280 282 281 280 273 269 267 264 263 262 260 253 247 240 239 233 229 237 238 233 235 236 220 217 207 192 183 183 194 180 180 166 175 152 156 147 122 29 15 341 261 203 190 189 180 177 189 197 203 188 181 141 170 177 171 180 140 90 176 166 171 166 160 154 152 159 160 167 177 150
273 277 275 271 273 275 275 271 268 266 265 263 259 255 249 248 245 243 237 236 235 235 227 229 228 228 217 193 179 193 193 206 197 184 181 187 189 178 185 191 192 140 360 10 6 310 212 195 180 174 184 192 191 196 170 162 153 150 177 171 163 178 179 165 171 168 165 156 154 155 133 141 185 211
282 283 281 281 277 275 280 278 277 267 262 258 262 257 248 243 237 238 240 244 243 243 243 245 225 209 172 192 207 198 206 208 192 178 183 187 182 183 172 192 208 167 154 137 127 352 58 142 180 193 194 179 187 153 128 159 164 163 168 174 179 95 156 167 166 149 151 145 144 174 182 179 188 186
282 275 277 270 274 265 269 274 268 269 265 262 257 258 261 259 252 243 228 234 235 231 229 235 226 233 204 221 199 203 204 204 181 172 192 199 182 188 193 208 194 178 186 193 163 136 97 69 51 87 82 62 122 151 151 156 173 167 171 173 174 159 157 171 165 146 127 154 180 175 197 195 193 197
282 277 278 269 270 274 270 271 272 272 269 269 268 259 254 253 254 251 250 249 250 238 234 238 237 236 218 218 201 200 207 198 187 184 189 196 188 186 197 207 211 192 194 187 162 159 121 108 102 81 75 66 53 88 181 173 161 166 169 168 171 168 168 158 166 159 166 175 169 179 198 229 210 195
254 284 281 281 274 268 268 268 271 272 270 268 270 270 263 253 252 255 256 256 257 255 253 248 242 234 222 220 205 207 205 199 189 185 200 200 194 201 203 211 212 188 192 178 170 168 145 151 136 115 76 75 81 333 84 118 145 162 146 170 172 167 165 168 158 163 167 171 164 181 183 215 233 203
275 261 273 280 279 279 276 272 272 270 269 268 266 272 272 264 253 252 255 254 253 253 249 245 241 237 233 227 216 210 207 197 192 186 188 192 195 206 213 217 215 196 190 188 175 161 163 160 159 161 165 165 176 207 258 176 157 159 159 171 174 166 161 158 165 160 171 181 177 158 192 210 217 212
261 255 252 262 267 268 271 276 275 273 267 266 265 258 260 266 262 251 251 250 248 247 246 246 244 237 234 228 223 213 207 201 203 196 198 199 199 201 204 211 204 186 184 191 166 154 162 172 177 171 167 171 183 211 196 91 183 188 164 169 168 170 158 157 158 177 188 170 181 186 191 191 205 214
248 249 254 257 260 263 262 266 268 269 267 263 263 261 256 258 262 258 253 250 251 251 249 248 251 246 240 228 222 216 209 206 203 201 205 201 205 210 213 210 207 196 194 175 166 171 177 176 181 182 180 188 196 201 194 183 114 216 192 162 162 162 156 153 175 182 184 178 172 173 135 193 215 216
254 260 256 261 262 261 261 259 255 260 259 257 255 255 259 259 256 255 250 247 249 251 252 250 248 245 241 232 225 219 212 206 207 208 200 201 202 206 212 216 214 195 159 153 165 176 178 188 189 187 188 193 202 205 178 163 200 136 184 179 146 153 173 174 177 172 172 176 179 87 49 44 358 227
264 260 264 266 268 264 264 261 258 253 258 253 252 251 249 253 249 248 248 246 244 244 245 248 249 248 242 232 226 226 227 217 212 206 203 202 205 205 209 207 201 177 173 171 158 178 191 198 193 197 195 151 54 81 92 101 63 117 145 183 175 166 165 161 171 161 175 171 135 154 197 84 171 333
276 274 269 266 272 271 269 269 266 268 263 260 258 257 251 252 251 247 244 240 238 241 244 244 243 243 242 233 220 214 222 223 217 216 211 209 205 203 198 188 178 170 172 187 182 185 199 194 146 92 94 99 113 91 93 112 121 136 150 163 181 167 166 172 161 162 166 141 156 167 182 195 200 8
271 271 271 265 265 268 265 267 266 264 264 261 259 258 255 250 249 248 248 243 240 238 240 243 242 240 241 236 227 217 221 220 216 216 211 206 204 203 192 186 181 174 176 189 193 194 158 122 125 122 127 130 140 150 177 173 149 152 153 121 122 176 173 171 164 166 157 152 147 143 118 52 58 314
272 272 275 272 267 267 265 263 262 260 262 261 259 257 257 255 252 247 242 242 237 236 237 239 235 233 236 232 227 219 221 225 220 215 210 207 203 198 198 199 194 188 186 179 152 145 150 146 143 144 149 153 174 168 165 153 153 148 141 149 124 65 109 172 177 177 171 174 177 171 167 160 143 214
271 272 271 271 270 268 266 264 264 259 259 260 258 256 253 255 254 248 242 239 235 233 232 234 235 230 229 225 221 219 220 225 218 210 207 207 204 205 203 199 191 181 174 157 150 153 154 157 161 157 162 178 171 162 158 142 150 160 157 141 118 131 136 73 41 65 141 214 216 209 202 191 208 208
287 282 283 280 277 275 275 272 269 269 266 262 261 257 256 254 255 254 248 242 238 234 231 228 229 228 225 219 211 217 218 213 211 210 205 200 202 199 197 187 183 180 175 165 155 151 155 157 158 162 162 162 161 159 142 148 146 146 150 145 148 141 125 113 139 173 205 288 297 262 244 239 238 243